| time (UTC) | temp F | wind direction | speed MPH | gust MPH | rain 1hr in | rain 24hr in | rain mn in | humidity % | barometer mb |
| 20260505065903 | 53 | 27 | 4.0 | 7.0 | 0.00 | 0.00 | 0.00 | 89 | 1012.4 |
| 20260505065404 | 53 | 8 | 5.0 | 8.0 | 0.00 | 0.00 | 0.00 | 89 | 1012.5 |
| 20260505064903 | 53 | 21 | 5.0 | 9.0 | 0.00 | 0.00 | 0.00 | 89 | 1012.5 |
| 20260505064403 | 52 | 18 | 5.0 | 7.0 | 0.00 | 0.00 | 0.00 | 89 | 1012.6 |
| 20260505063903 | 52 | 23 | 5.0 | 8.0 | 0.00 | 0.00 | 0.00 | 89 | 1012.6 |
| 20260505063403 | 52 | 35 | 2.0 | 6.0 | 0.00 | 0.00 | 0.00 | 89 | 1012.6 |
| 20260505062404 | 52 | 29 | 5.0 | 8.0 | 0.00 | 0.00 | 0.00 | 89 | 1012.6 |
| 20260505061904 | 52 | 19 | 5.0 | 7.0 | 0.00 | 0.00 | 0.00 | 89 | 1012.6 |
| 20260505060903 | 52 | 13 | 5.0 | 9.0 | 0.00 | 0.00 | 0.00 | 89 | 1012.5 |
| 20260505055904 | 52 | 27 | 5.0 | 8.0 | 0.00 | 0.00 | 0.00 | 89 | 1012.5 |
| 20260505055403 | 52 | 17 | 6.0 | 12.0 | 0.00 | 0.00 | 0.00 | 89 | 1012.5 |
| 20260505054904 | 53 | 354 | 6.0 | 10.0 | 0.00 | 0.00 | 0.00 | 89 | 1012.3 |
| 20260505054403 | 53 | 14 | 3.0 | 9.0 | 0.00 | 0.00 | 0.00 | 89 | 1012.3 |
| 20260505053903 | 53 | 15 | 5.0 | 7.0 | 0.00 | 0.00 | 0.00 | 89 | 1012.3 |
| 20260505052904 | 53 | 7 | 3.0 | 6.0 | 0.00 | 0.00 | 0.00 | 89 | 1012.3 |
| 20260505052404 | 53 | 26 | 3.0 | 6.0 | 0.00 | 0.00 | 0.00 | 89 | 1012.3 |
| 20260505051904 | 53 | 33 | 3.0 | 7.0 | 0.00 | 0.00 | 0.00 | 89 | 1012.2 |
| 20260505051403 | 53 | 22 | 3.0 | 6.0 | 0.00 | 0.00 | 0.00 | 89 | 1012.2 |
| 20260505050403 | 53 | 10 | 3.0 | 7.0 | 0.00 | 0.00 | 0.00 | 89 | 1012.2 |
| 20260505041403 | 54 | 19 | 5.0 | 7.0 | 0.00 | 0.00 | 0.00 | 89 | 1012.5 |
| 20260505040903 | 54 | 23 | 5.0 | 9.0 | 0.00 | 0.00 | 0.00 | 89 | 1012.5 |
| 20260505040403 | 54 | 13 | 3.0 | 6.0 | 0.00 | 0.00 | 0.00 | 89 | 1012.5 |
| 20260505035903 | 54 | 7 | 2.0 | 7.0 | 0.00 | 0.00 | 0.00 | 89 | 1012.5 |
| 20260505035403 | 54 | 21 | 3.0 | 6.0 | 0.00 | 0.00 | 0.00 | 89 | 1012.5 |
| 20260505034903 | 54 | 26 | 2.0 | 5.0 | 0.00 | 0.00 | 0.00 | 90 | 1012.5 |
| 20260505034403 | 54 | 9 | 4.0 | 7.0 | 0.00 | 0.00 | 0.00 | 90 | 1012.5 |
| 20260505033404 | 54 | 25 | 0.0 | 0.0 | 0.00 | 0.00 | 0.00 | 90 | 1012.5 |
| 20260505032903 | 54 | 25 | 0.0 | 0.0 | 0.00 | 0.00 | 0.00 | 90 | 1012.5 |
| 20260505032403 | 54 | 26 | 0.0 | 0.0 | 0.00 | 0.00 | 0.00 | 90 | 1012.5 |
| 20260505031904 | 54 | 28 | 0.0 | 0.0 | 0.00 | 0.00 | 0.00 | 89 | 1012.5 |
| 20260505031404 | 54 | 38 | 0.0 | 0.0 | 0.00 | 0.00 | 0.00 | 90 | 1012.6 |
| 20260505030904 | 54 | 41 | 0.0 | 0.0 | 0.00 | 0.00 | 0.00 | 90 | 1012.6 |
| 20260505030404 | 54 | 42 | 0.0 | 0.0 | 0.00 | 0.00 | 0.00 | 90 | 1012.6 |
| 20260505025403 | 54 | 50 | 0.0 | 1.0 | 0.00 | 0.00 | 0.00 | 90 | 1012.6 |
| 20260505024904 | 54 | 49 | 0.0 | 2.0 | 0.00 | 0.00 | 0.00 | 90 | 1012.5 |
| 20260505024404 | 54 | 50 | 1.0 | 3.0 | 0.00 | 0.00 | 0.00 | 90 | 1012.5 |
| 20260505023903 | 54 | 57 | 1.0 | 5.0 | 0.00 | 0.00 | 0.00 | 90 | 1012.6 |
| 20260505022903 | 54 | 42 | 2.0 | 5.0 | 0.00 | 0.00 | 0.00 | 90 | 1012.6 |
| 20260505022403 | 54 | 32 | 3.0 | 5.0 | 0.00 | 0.00 | 0.00 | 90 | 1012.6 |
| 20260505021903 | 54 | 34 | 3.0 | 6.0 | 0.00 | 0.00 | 0.00 | 91 | 1012.6 |
| 20260505021403 | 54 | 35 | 3.0 | 6.0 | 0.00 | 0.00 | 0.00 | 91 | 1012.6 |
| 20260505020903 | 54 | 30 | 2.0 | 6.0 | 0.00 | 0.00 | 0.00 | 91 | 1012.6 |
| 20260505020403 | 55 | 29 | 3.0 | 5.0 | 0.00 | 0.00 | 0.00 | 91 | 1012.7 |
| 20260505015904 | 55 | 41 | 3.0 | 5.0 | 0.00 | 0.00 | 0.00 | 91 | 1012.7 |
| 20260505015403 | 55 | 18 | 2.0 | 5.0 | 0.00 | 0.00 | 0.00 | 91 | 1013.0 |
| 20260505014403 | 55 | 33 | 2.0 | 5.0 | 0.00 | 0.00 | 0.00 | 91 | 1013.0 |
| 20260505013904 | 55 | 101 | 0.0 | 1.0 | 0.00 | 0.00 | 0.00 | 91 | 1013.0 |
| 20260505013403 | 55 | 101 | 1.0 | 2.0 | 0.00 | 0.00 | 0.00 | 91 | 1013.0 |
| 20260505012904 | 55 | 60 | 1.0 | 3.0 | 0.00 | 0.00 | 0.00 | 91 | 1013.0 |
| 20260505012404 | 55 | 100 | 0.0 | 3.0 | 0.00 | 0.00 | 0.00 | 91 | 1013.0 |
| 20260505011903 | 55 | 52 | 2.0 | 5.0 | 0.00 | 0.00 | 0.00 | 91 | 1013.3 |
| 20260505010903 | 55 | 10 | 0.0 | 5.0 | 0.00 | 0.00 | 0.00 | 91 | 1013.3 |
| 20260505005904 | 55 | 16 | 0.0 | 0.0 | 0.00 | 0.00 | 0.00 | 92 | 1013.3 |
| 20260505005404 | 55 | 16 | 0.0 | 0.0 | 0.00 | 0.00 | 0.00 | 91 | 1013.3 |
| 20260505004903 | 55 | 16 | 0.0 | 0.0 | 0.00 | 0.00 | 0.00 | 91 | 1013.3 |
| 20260505004404 | 55 | 32 | 0.0 | 0.0 | 0.00 | 0.00 | 0.00 | 91 | 1013.3 |
| 20260505003903 | 55 | 33 | 0.0 | 0.0 | 0.00 | 0.00 | 0.00 | 91 | 1013.3 |
| 20260505003403 | 55 | 34 | 0.0 | 0.0 | 0.00 | 0.00 | 0.00 | 91 | 1013.3 |
| 20260505002904 | 55 | 34 | 0.0 | 0.0 | 0.00 | 0.00 | 0.00 | 91 | 1013.3 |
| 20260505002404 | 55 | 35 | 0.0 | 0.0 | 0.00 | 0.00 | 0.00 | 91 | 1013.3 |
| 20260505001903 | 55 | 41 | 0.0 | 0.0 | 0.00 | 0.00 | 0.00 | 91 | 1013.3 |
| 20260505001403 | 55 | 37 | 0.0 | 0.0 | 0.00 | 0.00 | 0.00 | 91 | 1013.2 |
| 20260505000904 | 55 | 50 | 0.0 | 0.0 | 0.00 | 0.00 | 0.00 | 91 | 1013.2 |
| 20260505000405 | 55 | 19 | 0.0 | 0.0 | 0.00 | 0.00 | 0.00 | 91 | 1013.4 |
| 20260504235904 | 55 | 29 | 0.0 | 0.0 | 0.00 | 0.00 | 0.00 | 91 | 1013.4 |
| 20260504235404 | 55 | 32 | 0.0 | 0.0 | 0.00 | 0.00 | 0.00 | 91 | 1013.4 |
| 20260504233903 | 55 | 32 | 0.0 | 0.0 | 0.00 | 0.00 | 0.00 | 91 | 1013.4 |
| 20260504233403 | 55 | 32 | 0.0 | 0.0 | 0.00 | 0.00 | 0.00 | 91 | 1013.4 |
| 20260504232903 | 56 | 32 | 0.0 | 0.0 | 0.00 | 0.00 | 0.00 | 91 | 1013.4 |
| 20260504231903 | 56 | 32 | 0.0 | 0.0 | 0.00 | 0.00 | 0.00 | 91 | 1013.4 |
| 20260504231403 | 56 | 32 | 0.0 | 0.0 | 0.00 | 0.00 | 0.00 | 91 | 1013.4 |
| 20260504230904 | 56 | 25 | 0.0 | 0.0 | 0.00 | 0.00 | 0.00 | 91 | 1013.4 |
| 20260504230403 | 56 | 14 | 0.0 | 0.0 | 0.00 | 0.00 | 0.00 | 90 | 1013.4 |
| 20260504225904 | 56 | 13 | 0.0 | 0.0 | 0.00 | 0.00 | 0.00 | 90 | 1013.4 |
| 20260504224904 | 56 | 11 | 0.0 | 0.0 | 0.00 | 0.00 | 0.00 | 90 | 1013.6 |
| 20260504224403 | 56 | 10 | 0.0 | 0.0 | 0.00 | 0.00 | 0.00 | 90 | 1013.6 |
| 20260504223903 | 56 | 10 | 0.0 | 0.0 | 0.00 | 0.00 | 0.00 | 90 | 1013.6 |
| 20260504222904 | 56 | 312 | 0.0 | 0.0 | 0.00 | 0.00 | 0.00 | 89 | 1013.6 |
| 20260504222404 | 56 | 13 | 0.0 | 0.0 | 0.00 | 0.00 | 0.00 | 89 | 1013.6 |
| 20260504221903 | 57 | 19 | 2.0 | 3.0 | 0.00 | 0.00 | 0.00 | 89 | 1013.6 |
| 20260504221403 | 57 | 2 | 1.0 | 5.0 | 0.00 | 0.00 | 0.00 | 89 | 1013.7 |
| 20260504220904 | 57 | 14 | 2.0 | 6.0 | 0.00 | 0.00 | 0.00 | 89 | 1013.7 |
| 20260504215904 | 57 | 17 | 3.0 | 6.0 | 0.00 | 0.00 | 0.00 | 88 | 1013.6 |
| 20260504215404 | 57 | 2 | 4.0 | 7.0 | 0.00 | 0.00 | 0.00 | 88 | 1013.7 |
| 20260504214904 | 57 | 20 | 4.0 | 6.0 | 0.00 | 0.00 | 0.00 | 88 | 1013.7 |
| 20260504214403 | 57 | 26 | 2.0 | 3.0 | 0.00 | 0.00 | 0.00 | 88 | 1013.7 |
| 20260504213903 | 57 | 47 | 2.0 | 5.0 | 0.00 | 0.00 | 0.00 | 88 | 1013.7 |
| 20260504213403 | 57 | 36 | 1.0 | 3.0 | 0.00 | 0.00 | 0.00 | 88 | 1013.7 |
| 20260504212403 | 57 | 4 | 0.0 | 3.0 | 0.00 | 0.00 | 0.00 | 88 | 1013.7 |
| 20260504211904 | 57 | 1 | 2.0 | 5.0 | 0.00 | 0.00 | 0.00 | 87 | 1013.6 |
| 20260504210904 | 57 | 31 | 0.0 | 0.0 | 0.00 | 0.00 | 0.00 | 87 | 1013.6 |
| 20260504210404 | 57 | 31 | 0.0 | 0.0 | 0.00 | 0.00 | 0.00 | 86 | 1013.6 |
| 20260504205903 | 57 | 32 | 0.0 | 0.0 | 0.00 | 0.00 | 0.00 | 86 | 1013.6 |
| 20260504205403 | 57 | 37 | 0.0 | 0.0 | 0.00 | 0.00 | 0.00 | 86 | 1013.6 |
| 20260504204904 | 57 | 304 | 0.0 | 0.0 | 0.00 | 0.00 | 0.00 | 85 | 1013.6 |
| 20260504204404 | 57 | 304 | 0.0 | 0.0 | 0.00 | 0.00 | 0.00 | 85 | 1013.6 |
| 20260504203903 | 56 | 306 | 0.0 | 0.0 | 0.00 | 0.00 | 0.00 | 84 | 1013.6 |
| 20260504203403 | 57 | 306 | 0.0 | 0.0 | 0.00 | 0.00 | 0.00 | 84 | 1013.5 |
| 20260504202904 | 57 | 307 | 0.0 | 0.0 | 0.00 | 0.00 | 0.00 | 84 | 1013.5 |
| 20260504202403 | 57 | 307 | 0.0 | 0.0 | 0.00 | 0.00 | 0.00 | 84 | 1013.5 |
| 20260504201404 | 57 | 307 | 0.0 | 0.0 | 0.00 | 0.00 | 0.00 | 83 | 1013.5 |
| 20260504200904 | 57 | 306 | 0.0 | 0.0 | 0.00 | 0.00 | 0.00 | 83 | 1013.5 |
| 20260504200404 | 57 | 306 | 0.0 | 0.0 | 0.00 | 0.00 | 0.00 | 83 | 1013.5 |
| 20260504195903 | 57 | 306 | 0.0 | 0.0 | 0.00 | 0.00 | 0.00 | 83 | 1013.5 |
| 20260504194903 | 57 | 306 | 0.0 | 0.0 | 0.00 | 0.00 | 0.00 | 83 | 1013.5 |
| 20260504194404 | 57 | 306 | 1.0 | 3.0 | 0.00 | 0.00 | 0.00 | 83 | 1013.5 |
| 20260504193404 | 57 | 310 | 2.0 | 3.0 | 0.00 | 0.00 | 0.00 | 83 | 1013.0 |
| 20260504192904 | 57 | 310 | 1.0 | 5.0 | 0.00 | 0.00 | 0.00 | 83 | 1013.0 |
| 20260504192404 | 57 | 317 | 2.0 | 5.0 | 0.00 | 0.00 | 0.00 | 83 | 1013.0 |
| 20260504191904 | 57 | 320 | 1.0 | 3.0 | 0.00 | 0.00 | 0.00 | 83 | 1013.0 |
| 20260504190903 | 57 | 332 | 2.0 | 5.0 | 0.00 | 0.00 | 0.00 | 82 | 1013.0 |
| 20260504185904 | 58 | 321 | 3.0 | 3.0 | 0.00 | 0.00 | 0.00 | 82 | 1013.0 |
| 20260504185403 | 58 | 306 | 3.0 | 5.0 | 0.00 | 0.00 | 0.00 | 81 | 1013.0 |
| 20260504184903 | 58 | 311 | 3.0 | 5.0 | 0.00 | 0.00 | 0.00 | 82 | 1013.0 |
| 20260504184403 | 58 | 333 | 2.0 | 3.0 | 0.00 | 0.00 | 0.00 | 81 | 1013.0 |
| 20260504183903 | 59 | 328 | 3.0 | 5.0 | 0.00 | 0.00 | 0.00 | 81 | 1013.0 |
| 20260504182904 | 59 | 326 | 3.0 | 5.0 | 0.00 | 0.00 | 0.00 | 79 | 1012.9 |
| 20260504182404 | 60 | 14 | 2.0 | 5.0 | 0.00 | 0.00 | 0.00 | 79 | 1012.9 |
| 20260504181403 | 61 | 141 | 1.0 | 3.0 | 0.00 | 0.00 | 0.00 | 78 | 1012.9 |
| 20260504180903 | 61 | 183 | 1.0 | 3.0 | 0.00 | 0.00 | 0.00 | 76 | 1012.9 |
| 20260504175904 | 61 | 160 | 2.0 | 5.0 | 0.00 | 0.00 | 0.00 | 76 | 1012.7 |
| 20260504175403 | 61 | 106 | 2.0 | 3.0 | 0.00 | 0.00 | 0.00 | 76 | 1012.7 |
| 20260504174903 | 61 | 101 | 0.0 | 3.0 | 0.00 | 0.00 | 0.00 | 76 | 1012.7 |
| 20260504174403 | 61 | 147 | 2.0 | 7.0 | 0.00 | 0.00 | 0.00 | 76 | 1012.7 |
| 20260504173904 | 61 | 145 | 2.0 | 5.0 | 0.00 | 0.00 | 0.00 | 76 | 1012.8 |
| 20260504173403 | 61 | 106 | 2.0 | 5.0 | 0.00 | 0.00 | 0.00 | 76 | 1012.8 |
| 20260504172903 | 61 | 168 | 3.0 | 6.0 | 0.00 | 0.00 | 0.00 | 77 | 1012.8 |
| 20260504172403 | 61 | 167 | 4.0 | 6.0 | 0.00 | 0.00 | 0.00 | 76 | 1012.8 |
| 20260504171903 | 61 | 156 | 0.0 | 0.0 | 0.00 | 0.00 | 0.00 | 77 | 1012.8 |
| 20260504171404 | 61 | 118 | 0.0 | 0.0 | 0.00 | 0.00 | 0.00 | 78 | 1012.8 |
| 20260504170403 | 61 | 74 | 0.0 | 2.0 | 0.00 | 0.00 | 0.00 | 77 | 1012.7 |
| 20260504160404 | 62 | 73 | 4.0 | 6.0 | 0.00 | 0.00 | 0.00 | 72 | 1012.7 |
| 20260504150904 | 66 | 227 | 5.0 | 10.0 | 0.00 | 0.00 | 0.00 | 70 | 1012.7 |
| 20260504140904 | 67 | 190 | 2.0 | 7.0 | 0.00 | 0.00 | 0.00 | 68 | 1012.9 |
| 20260504140403 | 65 | 220 | 3.0 | 6.0 | 0.00 | 0.00 | 0.00 | 70 | 1013.0 |
| 20260504130404 | 64 | 308 | 2.0 | 3.0 | 0.00 | 0.00 | 0.00 | 66 | 1013.5 |
| 20260504110403 | 62 | 54 | 3.0 | 7.0 | 0.00 | 0.00 | 0.00 | 73 | 1013.5 |
| 20260504100404 | 58 | 339 | 1.0 | 5.0 | 0.00 | 0.00 | 0.00 | 79 | 1013.8 |
| 20260504081903 | 56 | 86 | 2.0 | 5.0 | 0.00 | 0.00 | 0.00 | 85 | 1013.5 |
| 20260504081404 | 55 | 101 | 2.0 | 5.0 | 0.00 | 0.00 | 0.00 | 85 | 1013.5 |
| 20260504080903 | 55 | 92 | 0.0 | 3.0 | 0.00 | 0.00 | 0.00 | 86 | 1013.5 |
| 20260504080403 | 55 | 95 | 2.0 | 5.0 | 0.00 | 0.00 | 0.00 | 86 | 1013.2 |
| 20260504070403 | 54 | 37 | 2.0 | 5.0 | 0.00 | 0.00 | 0.00 | 86 | 1012.8 |